Weather History for Lihue, HI

Change the Weather History Date:

Saturday, February 15, 2014

  Actual Average Record
Temperature  
Mean Temperature 72 °F 72 °F  
Max Temperature 74 °F 78 °F 85 °F (2004)
Min Temperature 69 °F 66 °F 56 °F (1993)
Degree Days  
Heating Degree Days 0 0  
Month to date heating degree days 0 0  
Since 1 July heating degree days 0 0  
Cooling Degree Days 7 7  
Month to date cooling degree days 80 105  
Year to date cooling degree days 276 314  
Growing Degree Days 21 (Base 50)    
Moisture  
Dew Point 69 °F    
Average Humidity 92    
Maximum Humidity 100    
Minimum Humidity 84    
Precipitation  
Precipitation 0.04 in 0.11 in 1.26 in (1987)
Month to date precipitation 4.64 1.65  
Year to date precipitation 6.35 5.40  
Snow  
Snow 0.00 in - - ()
Month to date snowfall 0.0  
Since 1 July snowfall 0.0  
Snow Depth 0.00 in    
Sea Level Pressure  
Sea Level Pressure 29.99 in    
Wind  
Wind Speed 16 mph (ENE)    
Max Wind Speed 28 mph    
Max Gust Speed 33 mph    
Visibility 8 miles    
Events Rain    
T = Trace of Precipitation, MM = Missing Value Source: NWS Daily Summary

Daily Weather History Graph

Daily Weather History Graph

Search for Another Location

Airport:

Trip Planner

Search our weather history database for the weather conditions in past years. The results will help you decide how hot, cold, wet, or windy it might be!

Date:

Astronomy

Feb. 15, 2014 Rise Set
Actual Time 7:08 AM HST 6:34 PM HST
Civil Twilight 6:45 AM HST 6:57 PM HST
Nautical Twilight 6:19 AM HST 7:23 PM HST
Astronomical Twilight 5:53 AM HST 7:50 PM HST
Moon 7:31 PM HST (2/15) 7:24 AM HST (2/15)
Length of Visible Light 12h 12m
Length of Day
11h 26m
Full, 99% of the Moon is Illuminated
Feb 15
Full
Feb 22
Last Quarter
Feb 28
New
Mar 8
First Quarter
Mar 16
Full

Hourly Weather History & Observations

Time (HST) Temp. Dew Point Humidity Pressure Visibility Wind Dir Wind Speed Gust Speed Precip Events Conditions
12:15 AM 69.8 °F 66.2 °F 88% 30.04 in 10.0 mi NE 20.7 mph - 0.00 in   Mostly Cloudy
12:22 AM 69.8 °F 66.2 °F 88% 30.04 in 10.0 mi NE 26.5 mph 31.1 mph 0.00 in Rain Light Rain
12:32 AM 69.8 °F 66.2 °F 88% 30.03 in 10.0 mi NE 23.0 mph - 0.00 in Rain Light Rain
12:53 AM 70.0 °F 66.9 °F 90% 30.02 in 8.0 mi NE 24.2 mph - 0.00 in Rain Light Rain
1:53 AM 70.0 °F 66.9 °F 90% 30.01 in 10.0 mi NE 24.2 mph 32.2 mph 0.00 in   Overcast
2:07 AM 69.8 °F 66.2 °F 88% 30.01 in 10.0 mi NE 23.0 mph - N/A   Mostly Cloudy
2:49 AM 69.8 °F 66.2 °F 88% 29.99 in 10.0 mi NE 21.9 mph 31.1 mph N/A   Mostly Cloudy
2:53 AM 70.0 °F 66.0 °F 87% 29.99 in 9.0 mi NE 25.3 mph 31.1 mph N/A   Mostly Cloudy
3:53 AM 70.0 °F 66.9 °F 90% 29.98 in 10.0 mi NE 20.7 mph 29.9 mph N/A   Overcast
4:53 AM 71.1 °F 66.9 °F 87% 29.98 in 10.0 mi ENE 18.4 mph - N/A   Overcast
5:17 AM 71.6 °F 66.2 °F 83% 29.98 in 10.0 mi ENE 19.6 mph - N/A   Overcast
5:27 AM 71.6 °F 66.2 °F 83% 29.98 in 10.0 mi NE 20.7 mph - N/A   Overcast
5:53 AM 71.1 °F 66.9 °F 87% 29.98 in 10.0 mi NE 20.7 mph - N/A   Overcast
6:53 AM 71.1 °F 66.0 °F 84% 30.00 in 10.0 mi ENE 17.3 mph 28.8 mph N/A   Mostly Cloudy
7:53 AM 72.0 °F 66.9 °F 84% 30.02 in 9.0 mi ENE 17.3 mph - N/A   Overcast
8:06 AM 71.6 °F 68.0 °F 88% 30.02 in 9.0 mi ENE 18.4 mph 23.0 mph N/A   Overcast
8:53 AM 72.0 °F 68.0 °F 87% 30.02 in 9.0 mi ENE 17.3 mph - 0.00 in   Overcast
9:53 AM 72.0 °F 68.0 °F 87% 30.03 in 8.0 mi ENE 15.0 mph 24.2 mph 0.00 in   Overcast
10:10 AM 71.6 °F 68.0 °F 88% 30.03 in 2.0 mi East 18.4 mph - 0.00 in Rain Light Rain
10:18 AM 71.6 °F 69.8 °F 94% 30.03 in 1.5 mi ENE 18.4 mph 23.0 mph 0.00 in Rain Light Rain
10:21 AM 71.6 °F 69.8 °F 94% 30.03 in 2.0 mi ENE 16.1 mph 23.0 mph 0.00 in Rain Light Rain
10:28 AM 71.6 °F 69.8 °F 94% 30.03 in 3.0 mi ENE 15.0 mph - 0.00 in Rain Light Rain
10:50 AM 71.6 °F 69.8 °F 94% 30.03 in 3.0 mi ENE 20.7 mph 27.6 mph 0.00 in Rain Light Rain
10:53 AM 71.1 °F 69.1 °F 93% 30.02 in 2.0 mi ENE 16.1 mph 26.5 mph 0.00 in Rain Light Rain
11:00 AM 71.6 °F 69.8 °F 94% 30.02 in 2.0 mi ENE 16.1 mph 24.2 mph 0.00 in Rain Light Rain
11:08 AM 71.6 °F 69.8 °F 94% 30.02 in 3.0 mi ENE 16.1 mph - 0.00 in Rain Light Rain
11:22 AM 71.6 °F 69.8 °F 94% 30.02 in 3.0 mi ENE 15.0 mph - 0.00 in   Overcast
11:42 AM 71.6 °F 69.8 °F 94% 30.02 in 2.0 mi East 13.8 mph 24.2 mph 0.00 in Rain Light Rain
11:53 AM 71.1 °F 70.0 °F 96% 30.00 in 1.2 mi ENE 19.6 mph - 0.00 in Rain Light Rain
12:14 PM 71.6 °F 71.6 °F 100% 29.99 in 1.2 mi ENE 13.8 mph - 0.02 in Rain Light Rain
12:24 PM 71.6 °F 71.6 °F 100% 29.99 in 1.8 mi ENE 15.0 mph - 0.02 in Rain Light Rain
12:28 PM 71.6 °F 71.6 °F 100% 29.98 in 3.0 mi ENE 17.3 mph - 0.02 in Rain Light Rain
12:53 PM 73.0 °F 72.0 °F 96% 29.97 in 9.0 mi ENE 15.0 mph - 0.03 in   Overcast
1:00 PM 73.4 °F 71.6 °F 94% 29.98 in 9.0 mi ENE 12.7 mph - N/A   Overcast
1:41 PM 71.6 °F 71.6 °F 100% 29.96 in 8.0 mi ENE 13.8 mph - N/A   Overcast
1:53 PM 72.0 °F 71.1 °F 97% 29.96 in 10.0 mi ENE 13.8 mph - N/A   Overcast
2:02 PM 71.6 °F 71.6 °F 100% 29.96 in 10.0 mi ENE 12.7 mph - N/A   Overcast
2:53 PM 73.9 °F 72.0 °F 93% 29.93 in 9.0 mi ENE 16.1 mph - N/A   Overcast
3:53 PM 73.0 °F 71.1 °F 93% 29.94 in 10.0 mi ENE 11.5 mph - N/A   Overcast
4:00 PM 73.4 °F 71.6 °F 94% 29.94 in 10.0 mi ENE 12.7 mph - N/A   Overcast
4:53 PM 73.0 °F 70.0 °F 90% 29.94 in 10.0 mi ENE 13.8 mph - N/A   Overcast
5:39 PM 73.4 °F 71.6 °F 94% 29.96 in 10.0 mi ENE 15.0 mph - N/A   Mostly Cloudy
5:53 PM 73.0 °F 71.1 °F 93% 29.96 in 9.0 mi ENE 15.0 mph - N/A   Mostly Cloudy
6:35 PM 73.4 °F 71.6 °F 94% 29.97 in 10.0 mi ENE 12.7 mph - N/A   Overcast
6:53 PM 72.0 °F 71.1 °F 97% 29.97 in 10.0 mi ENE 12.7 mph - N/A   Mostly Cloudy
7:05 PM 71.6 °F 71.6 °F 100% 29.97 in 9.0 mi ENE 12.7 mph - N/A   Partly Cloudy
7:53 PM 72.0 °F 71.1 °F 97% 29.98 in 10.0 mi ENE 11.5 mph - N/A   Mostly Cloudy
8:31 PM 73.4 °F 71.6 °F 94% 29.99 in 9.0 mi ENE 12.7 mph - N/A   Overcast
8:53 PM 73.0 °F 72.0 °F 96% 29.99 in 8.0 mi East 12.7 mph - N/A   Mostly Cloudy
9:27 PM 71.6 °F 71.6 °F 100% 30.00 in 9.0 mi East 13.8 mph - N/A   Overcast
9:53 PM 72.0 °F 71.1 °F 97% 29.99 in 10.0 mi East 13.8 mph - N/A   Overcast
10:53 PM 72.0 °F 71.1 °F 97% 29.98 in 9.0 mi East 10.4 mph - 0.00 in Rain Light Rain
11:53 PM 72.0 °F 72.0 °F 100% 29.97 in 7.0 mi East 10.4 mph - 0.01 in Rain Light Rain